Regional Weather Roundup
Issued by NWS Boston, MA

Home | Current Version | Previous Version | Text Only | Print | Product List | Glossary On
Versions: 1 2 3 4 5 6 7 8 9 10 11 12 13 14 15 16 17 18 19 20 21 22 23 24 25 26 27 28 29 30 31 32 33 34 35 36 37 38 39 40 41 42 43 44 45 46 47 48 49 50
269
ASUS41 KBOX 290810
RWRBOX

REGIONAL WEATHER ROUNDUP
NATIONAL WEATHER SERVICE TAUNTON MA
400 AM EDT FRI APR 29 2016

NOTE:  "FAIR" INDICATES FEW OR NO CLOUDS BELOW 12,000 FEET WITH NO
SIGNIFICANT WEATHER AND/OR OBSTRUCTIONS TO VISIBILITY.  THE FOLLOWING
OBSERVATION LOCATIONS DO NOT REPORT PRESENT WEATHER...PROVINCETOWN...
SMITHFIELD...BLOCK ISLAND...KEENE...AND OXFORD.

MAZALL-290900-
EASTERN MASSACHUSETTS

CITY           SKY/WX    TMP DP  RH WIND       PRES   REMARKS
BOSTON         CLOUDY    44  36  73 SE7       30.13R
BEVERLY        PTCLDY    41  34  76 CALM      30.13R
LAWRENCE       CLOUDY    39  35  86 N6        30.15R
BEDFORD        CLOUDY    39  33  79 CALM      30.12R
BLUE HILL        N/A     41  33  73 E8        30.10R
NORWOOD        CLOUDY    43  34  70 CALM      30.13R
MARSHFIELD     CLOUDY    45  37  76 SE3       30.14R
PLYMOUTH       CLOUDY    44  37  76 CALM      30.13R
TAUNTON        CLOUDY    47  35  63 E3        30.12R
NEW BEDFORD    CLOUDY    45  36  70 E6        30.12R
$$

MAZALL-290900-
CAPE COD AND THE ISLANDS

CITY           SKY/WX    TMP DP  RH WIND       PRES   REMARKS
FALMOUTH       CLOUDY    43  34  70 E6        30.12R
HYANNIS        CLOUDY    44  34  67 E5        30.11R
CHATHAM        CLOUDY    44  34  67 E6        30.14R
PROVINCETOWN   PTCLDY    42  35  76 E3        30.14R
NANTUCKET      LGT RAIN  45  34  65 E8        30.11R
MARTHAS VNYRD  CLOUDY    44  38  79 SE3       30.12R
$$

MAZALL-290900-
CENTRAL AND WESTERN MASSACHUSETTS

CITY           SKY/WX    TMP DP  RH WIND       PRES   REMARKS
WORCESTER      CLOUDY    41  33  73 SE5       30.09R
FITCHBURG      CLOUDY    41  32  70 N3        30.13R
ORANGE         PTCLDY    41  29  62 N5        30.10R
SPRINGFIELD    CLOUDY    45  36  69 SE2       30.08R
WESTFIELD      CLOUDY    46  37  71 CALM      30.09R
NORTH ADAMS    PTCLDY    45  19  35 E14       30.06S
PITTSFIELD     PTCLDY    42  21  43 NE8       30.05R
$$

RIZALL-290900-
RHODE ISLAND

CITY           SKY/WX    TMP DP  RH WIND       PRES   REMARKS
PROVIDENCE     CLOUDY    45  35  68 SE3       30.12R
NEWPORT        CLOUDY    44  38  79 NE3       30.11R
BLOCK ISLAND   CLOUDY    45  37  73 NE9       30.11R
SMITHFIELD       N/A     43  34  70 CALM      30.11R
WESTERLY       LGT RAIN  44  37  76 E5        30.11S
$$

CTZALL-290900-
CONNECTICUT

CITY           SKY/WX    TMP DP  RH WIND       PRES   REMARKS
BRADLEY INTL   CLOUDY    45  35  68 SE6       30.09R
HARTFORD       LGT RAIN  46  40  79 E5        30.10R
BRIDGEPORT     CLOUDY    48  37  65 E10       30.08R
DANBURY        CLOUDY    45  39  79 NE5       30.08R
GROTON         LGT RAIN  44  44 100 NE7       30.10R
NEW HAVEN      CLOUDY    46  39  76 NE6       30.09R
CHESTER        FAIR      43  41  93 E5        30.09R
MERIDEN        LGT RAIN  46  39  76 E3        30.10R
WILLIMANTIC    LGT RAIN  45  37  73 CALM      30.11R
OXFORD           N/A     43  37  81 E6        30.09R
$$

MEZ002-015-021-024-NHZ003-005-008-011-012-014-VTZ005-008-290900-
NORTHERN NEW ENGLAND

CITY           SKY/WX    TMP DP  RH WIND       PRES   REMARKS
PORTLAND ME    MOCLDY    35  15  44 NE10      30.17S WCI  27
BANGOR ME      CLEAR     26  14  60 CALM      30.21R
CONCORD NH     CLOUDY    39  20  46 NE12      30.15R WCI  32
MANCHESTER NH  CLOUDY    40  31  70 NE8       30.13R
NASHUA NH      PTCLDY    40  35  83 CALM      30.14R
PORTSMOUTH NH  CLOUDY    39  26  61 NE8       30.14R
JAFFREY NH     CLOUDY    37  30  75 VRB3      30.11R
KEENE NH       MOCLDY    41  30  65 NE5       30.13R
BURLINGTON VT  FAIR      30  20  66 CALM      30.15R
MT. WASHINGTON PTCLDY    19   3  49 W30         N/A  WCI   0
$$

NYZ052-076-290900-
EASTERN NEW YORK

CITY           SKY/WX    TMP DP  RH WIND       PRES   REMARKS
ALBANY         CLOUDY    39  19  44 N9        30.10R
NEW YORK CITY  CLOUDY    50  34  54 E7        30.05R
$$

ANZALL-290900-
MARINE OBSERVATIONS

STATION/POSITION TIME  TEMP    WIND        PRES    VSBY  WAVE
                       AIR SEA DIR/SP/G                  HT/PER
                 (UTC) (F)     (DEG/KT/KT) (MB)    (MI)  (FT/S)
BOSTON BUOY      0750   45 46  130/  6/  8 1019.2R         2/10
BUZZARDS BAY     0700   44      90/  9/ 10 1019.6R
NANTUCKET SOUND  0750   45 49   80/ 10/ 12 1019.7R         1/ 3
MASS BAY-STELLWA 0704   44 45                N/A    1 7/8  2/11
ISLE OF SHOALS   0700   44      40/ 11/ 14 1019.7R
S OF BLOCK IS    NOT AVBL
$$

......................KEY.........................
  SKY/WX - SKY CONDITION/PRESENT WEATHER
  TMP    - TEMPERATURE IN FAHRENHEIT
  DWPT   - DEWPOINT IN FAHRENHEIT
  RH     - RELATIVE HUMIDITY IN PERCENT
  WIND   - DIRECTION AND SPEED IN MPH
  PRES   - MEAN SEA LEVEL PRESSURE IN INCHES OF HG
  WCI    - WIND CHILL INDEX
  VSB    - VISIBILITY IN MILES
  HX     - HEAT INDEX
  TC     - TEMPERATURE IN CELSIUS
  VRB    - VARIABLE WIND DIRECTION
  N/A    - NOT AVAILABLE




USA.gov is the U.S. government's official web portal to all federal, state and local government web resources and services.